TimePDT,TemperatureF,Dew PointF,Humidity,Sea Level PressureIn,VisibilityMPH,Wind Direction,Wind SpeedMPH,Gust SpeedMPH,PrecipitationIn,Events,Conditions,WindDirDegrees,DateUTC
12:53 AM,66.9,45.0,45,29.86,10.0,SW,15.0,-,N/A,,Clear,230,2014-08-22 07:53:00
2:53 AM,61.0,46.0,58,29.88,10.0,WSW,5.8,-,N/A,,Clear,240,2014-08-22 09:53:00
3:53 AM,61.0,46.0,58,29.89,10.0,SW,6.9,-,N/A,,Clear,230,2014-08-22 10:53:00
5:53 AM,55.9,46.0,69,29.91,10.0,SSW,6.9,-,N/A,,Clear,210,2014-08-22 12:53:00
6:53 AM,55.9,46.9,72,29.93,10.0,Calm,Calm,-,N/A,,Clear,0,2014-08-22 13:53:00
8:53 AM,66.0,46.9,50,29.95,10.0,Calm,Calm,-,N/A,,Clear,0,2014-08-22 15:53:00
9:53 AM,71.1,48.9,45,29.95,10.0,Calm,Calm,-,N/A,,Clear,0,2014-08-22 16:53:00
10:53 AM,73.9,50.0,43,29.95,10.0,Variable,5.8,-,N/A,,Clear,0,2014-08-22 17:53:00
11:53 AM,75.0,50.0,41,29.94,10.0,WNW,5.8,-,N/A,,Clear,290,2014-08-22 18:53:00
12:53 PM,79.0,51.1,38,29.93,10.0,Variable,6.9,-,N/A,,Partly Cloudy,0,2014-08-22 19:53:00
2:53 PM,80.1,51.1,36,29.91,10.0,WNW,8.1,-,N/A,,Clear,290,2014-08-22 21:53:00
3:53 PM,81.0,48.9,33,29.90,10.0,West,8.1,-,N/A,,Clear,280,2014-08-22 22:53:00
4:33 PM,82.0,50.0,33,29.90,10.0,Variable,4.6,-,N/A,Thunderstorm,Clear,0,2014-08-22 23:33:00
4:53 PM,81.0,50.0,34,29.90,10.0,West,9.2,-,N/A,Thunderstorm,Partly Cloudy,280,2014-08-22 23:53:00
5:15 PM,75.9,50.0,40,29.92,10.0,NW,9.2,-,0.00,Rain,Light Rain,310,2014-08-23 00:15:00
5:53 PM,79.0,50.0,36,29.91,10.0,WNW,8.1,-,0.00,,Clear,300,2014-08-23 00:53:00
6:53 PM,78.1,50.0,37,29.91,10.0,WNW,6.9,-,N/A,,Clear,290,2014-08-23 01:53:00
7:53 PM,73.0,53.1,49,29.92,10.0,WSW,4.6,-,N/A,,Clear,240,2014-08-23 02:53:00
8:53 PM,73.0,53.1,49,29.95,10.0,West,8.1,-,N/A,,Overcast,280,2014-08-23 03:53:00
9:53 PM,70.0,51.1,51,29.96,10.0,WNW,9.2,-,N/A,,Partly Cloudy,300,2014-08-23 04:53:00
10:53 PM,72.0,50.0,46,29.97,10.0,North,12.7,-,N/A,,Clear,350,2014-08-23 05:53:00
11:53 PM,70.0,48.9,47,29.99,10.0,North,10.4,-,N/A,,Scattered Clouds,10,2014-08-23 06:53:00